Location: ???????
(55.4362°N, 38.1183°E)
Time: 14:57:46
(UTC+00:00)

Cosmos 372 Rocket - Pass Details

Date: 25 October 2021
Orbit: 738 x 768 km, 74.1° (Epoch: 04 December)

Event Time Altitude Azimuth Distance (km) Brightness Sun altitude
Rises 15:28:51 0° 255° (WSW) 3,173 9.0 -12.6°
Reaches altitude 10° 15:31:42 10° 270° (W) 2,252 7.9 -13.0°
Maximum altitude 15:35:39 22° 321° (NW) 1,581 6.1 -13.5°
Drops below altitude 10° 15:39:37 10° 13° (NNE) 2,261 6.3 -14.1°
Sets 15:42:30 0° 28° (NNE) 3,190 6.9 -14.5°
